Tracking 31011 objects as of 13-Jul-2025
HD Live streaming from Space Station
objects crossing your sky now

STARLINK-11334

Track STARLINK-11334 now!
10-day predictions
STARLINK-11334 is classified as:


NORAD ID: 61250
Int'l Code: 2024-175H
Perigee: 366.1 km
Apogee: 367.6 km
Inclination: 53.2 °
Period: 91.7 minutes
Semi major axis: 6737 km
RCS: Unknown
Launch date: September 25, 2024
Source: United States (US)
Launch site: AIR FORCE WESTERN TEST RANGE (AFWTR)
Your satellite tracking list
Your tracking list is empty




NASA's NSSDC Master Catalog

Two Line Element Set (TLE):
1 61250U 24175H   25194.17901535  .00000217  00000-0  66520-5 0  9999
2 61250  53.1593 156.6223 0001166  68.0887 292.0255 15.69716041 46643
Source of the keplerian elements: AFSPC